Погода Облучье

Погода Облучье : погода сейчас, прогноз погоды и архив. Всё, что Вы хотите узнать о погоде Облучье!

Хотите узнать прогноз погоды Облучье? Тогда Вам сюда: Погода Облучье

Поиск расширенной информации на нашем сайте:

Полезная информация: Cтраница 10 наращивание ресниц в верхней пышме.

Другие новости

Новости СМИ2

Главная страница сайта

Новости сайта

02.10.2013

Напоминаем, что на нашем новом сайте вы можете получить высокодетализированные прогнозы погоды по пунктам России, СНГ и мира (включающие важные для авиации метеовеличины, такие как направление и скорость ветра, видимость, явления погоды, количество и форма облачности, нижняя и верхняя граница облачности), а также ознакомиться с разнообразными материалами по авиационной метеорологии и подборкой полезных ссылок на эту тему.

Сайт Метеоцентр.Азия посвящён разработке технологий оптимизации авиаметеорологического обслуживания, включая проектирование и перспективное создание нескольких автоматизированных авиаметеорологических систем:
- система выпуска высокодетальных прогностических карт явлений погоды для нижнего воздушного пространства по России и ближнему зарубежью;
- система верификации прогнозов TAF (выпускаемых синоптиками официальных АМСГ РФ и ближнего зарубежья) и AUTOTAF (выпускаемых сайтом Метеоцентр.Азия) - выявление ошибок, онлайн-сопоставление с фактической погодой METAR, автоматическое внесение коррективов в прогнозы при резком отклонении фактической погоды от прогноза, подсчёт оправдываемости прогнозов по элементам и в целом;
- система обработки, анализа и отображения авиаметеорологической информации для применения провайдерами метеорологической информации.

Рекомендуем: Удобный поиск горящих туров в Швейцарию

Погода Облучье - сегодня

Время (UTC), дата Ветер
(°,м/с) 
Видим.   Явления Облачность Т
(°С)
Тd
(°С)
f(%) Тe
(°С)
Pmin
(гПа)
dP
(гПа)
Po
(мм)
O2
(г/м3)
Тmin Tmax R s Состояние
почвы
03 22.02.17 тихо ()   4000 м  снег  10/0 средняя 
[As op]
-7.4 -10.8 77 -7  1012.6  -2.1  734  305           
06 22.02.17 020 (С) 10 км  слаб. снег  10/0 средняя 
[As op]
-5.9 -10.1 72 -6  1009.7  -2.1  732  302           
09 22.02.17 270 (З) 10 км  слаб. снег  10/0 средняя 
[As op]
-8 -10.5 82 -8  1010.1  -0.1  732  305    -5.3     
12 22.02.17 270 (З) 10 км  слаб. снег  10/0 средняя 
[As op]
-9.8 -11.8 85 -13  1011  0.6  733  307           
15 22.02.17 260 (З) 10 км  слаб. снег  10/0 средняя 
[As op]
-13.7 -15.9 83 -14  1011.8  0.3  733  312           
18 22.02.17 тихо ()   10 км  слаб. снег  10/0 средняя 
[As op]
-19.4 -21.6 83 -19  1012.7  733  320           
21 22.02.17 360 (С) 20000 м  {снег}  8/0 средняя, верхняя 
[Ac trans|Ci fib]
-25.2 -27.8 79 -26  1014  0.5  733  327  -25.3    40  равномерный
сухой снег
100% 
00 23.02.17 010 (С) 20000 м  {снег}  3/0 верхняя 
[Ci fib]
-22.7 -25.7 76 -23  1014.7  734  324  -28.1         
03 23.02.17 260 (З) 20000 м    ясно 
-13.4 -20.1 57 -13  1013.4  734  313           
06 23.02.17 260 (З) 20000 м    ясно 
-11.5 -20.7 46 -15  1011.4  -1.6  733  310           
09 23.02.17 320 (СЗ) 20000 м    ясно 
-12.3 -20.9 49 -16  1011.9  -1.6  733  311    -10.1       
12 23.02.17 360 (С) 20000 м    ясно 
-22 -24.9 77 -22  1014.7  1.4  734  323           
15 23.02.17 020 (С) 20000 м    ясно 
-23.8 -26 82 -24  1014.4  -0.5  734  326           
18 23.02.17 360 (С) 20000 м    ясно 
-24.1 -27 77 -27  1013.7  -0.7  733  326           
21 23.02.17 010 (С) 20000 м    ясно 
-24.1 -27.4 74 -29  1012.8  -0.7  733  326  -24.8      39  равномерный
сухой снег
100% 
00 24.02.17 010 (С) 20000 м    ясно 
-21 -25.1 70 -24  1011.9  -0.4  732  321           
03 24.02.17 250 (З) 20000 м    ясно 
-10.1 -18.4 51 -12  1009.5  -0.9  732  308           
06 24.02.17 130 (ЮВ) 20000 м    10/9 1000 м верхняя 
[Sc|Ci fib]
-7.6 -19 40 -7  1007.3  -1.8  730  304           
09 24.02.17 330 (СЗ) 20000 м    10/0 средняя 
[As op]
-8.4 -17.7 47 -10  1007.4  -0.1  730  305    -7.4       
12 24.02.17 290 (З) 1{10}  20000 м    8/0 верхняя 
[Ci fib]
-11.4 -18 58 -11  1009.1  1.2  731  309           
15 24.02.17 320 (СЗ) 2{12}  20000 м    ясно 
-16.5 -27.7 37 -19  1011.2  1.4  732  316           
18 24.02.17 290 (З) 20000 м    ясно 
-19.8 -28.1 48 -24  1011.5  -0.2  732  320           
21 24.02.17 тихо ()   20000 м    ясно 
-27.5 -31 72 -28  1013.3  0.6  733  330  -27.5      38  равномерный
сухой снег
100% 
00 25.02.17 010 (С) 20000 м    10/0 верхняя 
[Ci fib]
-23.5 -29 61 -24  1013.8  1.1  733  325  -30.6         
03 25.02.17 270 (З) 20000 м    3/0 средняя 
[Ac lent]
-13.8 -27.4 31 -16  1011.5  -0.9  733  313           
Время (UTC), дата Ветер
(°,м/с) 
Видим.   Явления Облачность Т
(°С)
Тd
(°С)
f(%) Тe
(°С)
Pmin
(гПа)
dP
(гПа)
Po
(мм)
O2
(г/м3)
Тmin Tmax R s Состояние
почвы

Для получения пояснительной информации подведите курсор к названию столбца.

ПОГОДА Облучье - архив

Всё, что Вы хотите узнать о погоде Облучье - удобно и подробно!

Выберите нужную дату (начиная с 1 января 2015* года) и нажмите кнопку "Найти".
Будут отображены архивные сводки погоды по пункту Облучье, начиная с указанной даты.


Отображать данные в формате CSV (для использования в таблицах Excel)


Внимание! Наш архив погоды предназначен исключительно для личного некоммерческого использования в познавательных целях. Если Вам необходимы официальные справки о состоянии погоды (для производственных, юридических, коммерческих и т.п. целей), обращайтесь в органы Росгидромета.

*Примечание: данная дата относится к архиву по метеостанциям СССР (Россия, СНГ, Балтия).
Архив по метеостанциям Зарубежной Европы и Азии (кроме Китая) хранится 10 дней, по другим регионам земного шара (Китай, Африка, Америка, Австралия, Океания) - 1 день.

Облучье - район местоположения метеостанции


Название, широта, долгота, высота метеостанции:
Облучье 49°ш. 131.1°д. 257 м над ур. моря [Российская Федерация]

Дополнительная информация

В oтличие oт бoльшинства пoгoдных сайтoв мы публикуем пoдрoбную метеoинфoрмацию в детальнoм прoфессиoнальнoм фoрмате.

Характеристики температуры и влажнoсти вoздуха измеряются на высoте 2 м в тени вдали oт зданий и деревьев.
Скoрoсть ветра измеряется на высoте 10 м (на урoвне рoста челoвека скoрoсть ветра ниже в 1.5-2 раза). Если метеoстанция нахoдится в гoрoде или в лесу, тo скoрoсть ветра занижена на 2-4 м/с пo сравнению с oткрытым местoм. Скoрoсть ветра над акватoриями крупных рек и oзёр, а также на вершинах хoлмoв на 2-5 м/с выше, чем в oбычных услoвиях.
Атмoсфернoе давление в разных тoчках местнoсти мoжет значительнo oтличаться oт давления на метеoстанции, в зависимoсти oт услoвий рельефа (при пoдъёме на 10 м давление пoнижается примернo на 1 мм рт.ст.).